www.pogodaiklimat.ru

Погода и климат >> Архив погоды >> Монголия >> Амарбуйантайан


ПОГОДА в Амарбуйантайане

  • Прогноз погоды в Амарбуйантайане
  • Монитор погоды в Амарбуйантайане

АРХИВ ПОГОДЫ в Амарбуйантайане

Время (UTC), дата Ветер
(напр.,м/с)
 
Видим.   Явления Облачность Т
(С)
Тd
(С)
f
(%)
Тe
(С)
Тes
(С)
Комфортность P
(гПа)
Po
(гПа)
Тmin
(С)
Tmax
(С)
R
(мм)
R24
(мм)
S
(см)
18 14.07 ЮЗ 2 н/о 6/6 600 м
[Sc]
+10.8 +8.5 86 +9 +9 1008.2 772.5
21 14.07 ЮЗ 4 50 км 3/0 2000 м
[Ac lent]
+10.5 +8.3 86 +8 +8 1008.3 772.3
00 15.07 ЮЗ 2 50 км 3/0
[Ci]
+13.4 +7.4 67 +13 +15 1005.8 772.5 +9.8
03 15.07 З 7 50 км 4/4 1000 м
[Cu med, cong]
+18.7 +6.5 45 +18 +21 1002.1 773.0
06 15.07 З 6 50 км 5/4 1000 м
[Cu med, cong Ci fib]
+20.1 +6.8 42 +21 +25 комфорт 999.9 772.6
09 15.07 З 6 50 км 4/3 1000 м
[Cu med, cong Ci fib]
+22.2 +5.6 34 +23 +25 комфорт 997.4 772.1
12 15.07 С 7 20 км в посл. час ливневой дождь {гроза} туман ?/? +16.2 +8.4 60 +15 +15 1004.7 773.6 +22.7 0.5
15 15.07 ЮВ 4 н/о 9/8 600 м
[Sc Ac lent]
+14.2 +8.8 70 +13 +13 1007.7 774.5
18 15.07 СВ 2 н/о 6/6 600 м
[Sc]
+13.9 +8.1 68 +13 +13 1007.8 774.4
21 15.07 ЮВ 1 н/о 8/5 600 м
[Sc Ac cast]
+13.9 +7.4 65 +14 +14 1007.7 774.3
00 16.07 В 2 50 км 9/3 600 м
[Sc Ac As Ci fib]
+16.2 +9.7 65 +16 +17 1006.0 774.6 +12.2
03 16.07 ЮЗ 4 50 км 9/8 600 м
[Sc Ac lent]
+19.4 +6.0 42 +20 +21 1004.3 775.5
06 16.07 С 5 50 км 9/3 600 м
[Sc Ac lent Cs]
+18.8 +8.9 53 +19 +23 1005.1 775.7
09 16.07 С 4 50 км 8/1 600 м
[Cu hum Ac lent Ci fib]
+19.4 +6.9 44 +20 +23 1004.1 775.4
12 16.07 СЗ 3 50 км 8/5 600 м
[Sc Ac lent Ci fib]
+20.1 +6.8 42 +21 +21 комфорт 1003.9 775.7 +20.6
15 16.07 З 2 н/о 9/9 600 м
[Sc]
+18.6 +6.4 45 +19 +19 1006.0 776.3
18 16.07 СЗ 1 н/о 9/9 600 м
[Sc]
+16.1 +9.6 65 +17 +17 1008.5 776.5
21 16.07 В 2 н/о 9/9 600 м
[Sc]
+15.7 +8.8 64 +16 +16 1008.8 776.4
00 17.07 С 2 50 км 9/6 600 м
[Sc Ac cast]
+14.8 +10.0 73 +15 +15 1011.3 777.7 +14.0
03 17.07 С 7 50 км 9/3 1000 м
[Sc Ac cast Ci fib]
+18.6 +6.4 45 +18 +20 1008.1 777.9
06 17.07 З 12
{16}
50 км в посл. час дождь 10/0 600 м
[As op]
+13.0 +10.0 82 +9 +9 1012.7 777.5
09 17.07 С 4 50 км 9/3 600 м
[Sc Ac As]
+16.1 +8.3 60 +15 +17 1010.3 777.9
12 17.07 В 3 50 км 9/6 600 м
[Sc Ac lent]
+16.9 +9.8 63 +17 +17 1009.9 778.1 +18.8 4
15 17.07 ЮЗ 3 н/о слаб. дождь 10/0 600 м
[As op]
+14.8 +10.4 75 +14 +14 1012.7 778.8
18 17.07 Ю 6 н/о слаб. дождь 10/0 600 м
[As op]
+13.0 +8.0 72 +11 +11 1013.3 778.0
21 17.07 Ю 2 н/о {дождь} 9/6 600 м
[Sc Ac lent]
+12.7 +8.4 75 +12 +12 1013.0 777.5
00 18.07 ЮЗ 2 50 км {дождь} 9/4 600 м
[Sc Ac lent Ci fib]
+13.3 +8.9 75 +13 +14 1012.5 777.6 +12.3 0.6
03 18.07 З 7 50 км 8/3 600 м
[Cu hum Ac trans Ci fib]
+14.9 +9.1 68 +13 +15 1011.2 777.7
06 18.07 З 4 50 км 10/5 600 м
[Cu med, cong Ci fib]
+19.9 +9.5 51 +21 +26 комфорт 1005.5 776.8
09 18.07 Ю 5 20 км в посл. час ливневой дождь {гроза} туман 9/9 600 м
[Cb cap]
+16.5 +8.8 60 +16 +16 1007.6 776.1
12 18.07 ЮЗ 5 50 км {гроза, ливн. осадки} 9/9 600 м
[Sc]
+17.0 +9.7 62 +16 +16 1007.2 776.1 +20.9 1
15 18.07 ЮЗ 4 н/о 8/4 600 м
[Sc diur, vesp Ac trans]
+15.1 +8.6 65 +14 +14 1010.0 776.9
18 18.07 ЮЗ 6 н/о 8/0 2000 м
[Ac trans Ci fib]
+14.1 +7.2 63 +12 +12 1009.8 776.1
21 18.07 ЮЗ 4 50 км 1/0 2000 м
[Ac lent]
+12.0 +4.5 60 +10 +10 1011.2 775.6
00 19.07 ЮЗ 4 50 км 4/0
[Ci]
+16.1 +7.1 55 +15 +17 1007.4 775.6 +11.8
03 19.07 З 6 50 км 1/1 1000 м
[Cu hum]
+20.4 +4.3 35 +21 +26 комфорт 1003.8 775.8
06 19.07 З 6 50 км 3/3 1000 м
[Cu hum]
+22.6 +1.7 25 +22 +27 комфорт 1001.2 775.3
09 19.07 З 8 50 км 3/3 1000 м
[Cu hum]
+24.5 -0.7 19 +23 +24 комфорт 998.4 774.4
12 19.07 З 5 50 км 4/3 1000 м
[Sc diur, vesp Ci fib]
+23.7 -2.0 18 +22 +22 комфорт 998.8 774.2 +24.8
15 19.07 ЮЗ 5 н/о 4/3 1000 м
[Sc Ac lent]
+18.1 -3.9 22 +18 +18 1004.3 774.6
18 19.07 ЮЗ 4 50 км 3/3 1000 м
[Sc]
+15.3 -1.4 32 +15 +15 1006.4 774.3
21 19.07 ЮЗ 6 50 км 3/3 1000 м
[Sc]
+14.2 -1.4 34 +13 +13 1007.0 774.0
00 20.07 ЮЗ 4 50 км 3/0 2000 м
[Ac lent Ci fib]
+18.9 +1.8 32 +19 +21 1003.3 774.4 +14.0
03 20.07 ЮЗ 8 50 км 8/1 1000 м
[Cu hum Ac trans Ci]
+21.7 +0.7 25 +21 +23 комфорт 1000.9 774.5
06 20.07 ЮЗ 13
{19}
50 км 8/3 1000 м
[Cu med, cong Ac lent Ci fib]
+23.8 +0.7 22 +23 +23 комфорт 997.7 773.4
09 20.07 З 8
{19}
50 км 5/3 1000 м
[Cu med, cong Ci fib]
+24.5 -0.7 19 +23 +24 комфорт 996.9 773.2
12 20.07 З 6 50 км 4/1 1000 м
[Cu hum Ac lent Ci fib]
+23.2 -0.4 21 +22 +22 комфорт 998.4 773.5 +25.5
15 20.07 З 6 50 км 1/0 2000 м
[Ac lent]
+18.7 -2.7 23 +18 +18 1003.3 774.3
18 20.07 З 6 н/о 4/0 2000 м
[Ac lent Ci fib]
+17.5 +1.9 35 +17 +17 1004.4 774.3
21 20.07 З 7 н/о 9/5 600 м
[Sc Ac trans]
+16.8 +1.3 35 +16 +16 1004.8 774.1
00 21.07 СЗ 8 50 км 9/9 600 м
[Sc]
+14.6 +5.0 53 +13 +13 1008.5 775.4 +14.5
03 21.07 ЮЗ 6 50 км 9/8 600 м
[Sc Ac lent]
+17.0 +5.2 46 +16 +17 1005.9 775.1
06 21.07 ЮЗ 10 50 км 9/4 1000 м
[Sc Cs]
+19.3 +6.8 44 +19 +19 1003.6 774.9
09 21.07 Ю 10
{15}
50 км 9/3 1000 м
[Cu med, cong As trans]
+17.7 +5.2 44 +16 +17 1004.7 774.7
12 21.07 Ю 10 50 км 9/3 600 м
[Sc diur, vesp Ac cuf Ci]
+15.1 +6.1 55 +13 +13 1006.6 774.3 +20.2

 

Местоположение метеостанции Амарбуйантайан (Монголия): широта 44.62 долгота 98.70 высота над уровнем моря 2103 м.

В архиве по умолчанию представлена погода в Амарбуйантайане за последнюю неделю. Архивные данные за месяц целиком и за предыдущие месяцы, начиная с января 2011 года, Вы можете получить, выбрав интересующий диапазон дат из раскрывающегося списка и нажав кнопку "Ввод!".


*Определитесь, кто Вы:
робот инопланетянин человек

Внимание! Время в таблицах - всемирное. Для получения местного времени необходимо прибавить поправку, которая равна 8 ч.

Смотрите также архив погоды в соседних городах и на ближайших метеорологических станциях:

Погода в Эрдэни (Монголия) (94 км)
Погода в Шинэ Уса (Монголия) (227 км)
Погода в Баянхонгоре (Монголия) (228 км)
Погода в Баянбулаге (Монголия) (250 км)
Погода в Галууте (Монголия) (257 км)
Погода в Богде (Монголия) (274 км)
Погода в Алтае (Монголия) (275 км)
Погода в Наомаоху (Синьцзян-Уйгурский автономный район, Китай) (307 км)
Погода в Мазонг Шанчжэнь (Ганьсу, Китай) (342 км)
Погода в Эдзин-Ци (Внутренняя Монголия, Китай) (353 км)

Пояснения к столбцам:

Ветер - указаны скорость ветра в м/с - средняя за 10 мин, порывы в срок и между сроками (в фигурных скобках) и направление, откуда дует ветер: С - северный, СВ - северо-восточный, В - восточный, ЮВ - юго-восточный, Ю - южный, ЮЗ - юго-западный, З - западный, СЗ - северо-западный.
Видимость - горизонтальная дальность видимости в метрах или километрах. При видимости от 1 до 10 км при отсутствии осадков обычно наблюдается дымка, при ухудшении видимости до 1 км и менее - туман. В сухую погоду видимость может ухудшаться дымом, пылью или мглою.
Явления - указаны атмосферные явления, наблюдавшиеся в срок или в последний час перед сроком; фигурными скобками обозначены явления, наблюдавшиеся между сроками (за 1-3 часа до срока); квадратными скобками обозначены град или гололедные отложения с указанием их диаметра в мм.
Облачность - указаны через наклонную черту общая и нижняя облачность в баллах и высота нижней границы облаков в метрах; квадратными скобками обозначены формы облаков: Ci - перистые, Cs - перисто-слоистые, Cc - перисто-кучевые, Ac - высококучевые, As - высокослоистые, Sc - слоисто-кучевые, Ns - слоисто-дождевые, Cu - кучевые, Cb - кучево-дождевые. Подробнее классификацию облаков см. в Атласе облаков (PDF).
T - Температура воздуха - температура, измеренная на высоте 2 м над землей.
Td - Температура точки росы - температура, при понижении до которой содержащийся в воздухе водяной пар достигнет насыщения.
f - Относительная влажность воздуха - влажноcть воздуха, измеренная на высоте 2 м над землей.
Te - Эффективная температура - температура, которую ощущает одетый по сезону человек в тени. Характеристика душности погоды. При расчете учитывается влияние влажности воздуха и скорости ветра на теплоощущения человека.
Tes - Эффективная температура на солнце - температура, которую ощущает человек, с поправкой на солнечный нагрев. Характеристика знойности погоды. Зависит от высоты солнца над горизонтом, облачности и скорости ветра. Ночью, в пасмурную погоду, а также при ветре 12 м/с и более поправка равна нулю.
P - Атмосферное давление - приведенное к уровню моря атмосферное давление.
Po - Атмосферное давление - измеренное на уровне метеостанции атмосферное давление.
Tmin - Минимальная температура - минимум температуры воздуха на высоте 2 м над землей.
Tmax - Максимальная температура - максимум температуры воздуха на высоте 2 м над землей.
R - Количество осадков - Количество выпавших осадков за период времени, мм. При наведении курсора мыши на число - период времени, за который выпало указанное количество осадков.
R24 - Количество осадков - Количество выпавших осадков за 24 часа, мм.
S - Снежный покров - Высота снежного покрова, см. При наведении курсора мыши на число - состояние снежного покрова и степень покрытия местности в баллах.